Location: Newark
(42.7133°N, 87.7910°W)
Time: 16:36:25
(UTC+00:00)

Transit 2A Rocket - Visible Passes

Search period start: 23 October 2019 00:00
Search period end: 02 November 2019 00:00
Orbit: 594 x 909 km, 66.7° (Epoch: 22 October)

Date Brightness Start Highest point End Pass type
(mag) Time Alt. Az. Time Alt. Az. Time Alt. Az.
23 Oct 5.0 09:48:02 65° SE 09:48:10 66° ESE 09:52:51 10° NE visible
23 Oct 6.2 11:28:00 11° W 11:31:05 19° NW 11:34:25 10° N visible
24 Oct 6.7 09:07:30 27° ENE 09:07:30 27° ENE 09:10:06 10° NE visible
24 Oct 5.6 10:47:27 28° WNW 10:48:19 30° NW 10:52:25 10° NNE visible
25 Oct 7.9 08:26:47 11° ENE 08:26:47 11° ENE 08:26:57 10° ENE visible
25 Oct 5.4 10:06:44 41° NNW 10:06:44 41° NNW 10:10:12 10° NNE visible
26 Oct 6.6 09:25:54 25° NNE 09:25:54 25° NNE 09:27:47 10° NNE visible
26 Oct 6.5 11:05:50 14° NW 11:06:15 14° NW 11:08:44 10° N visible
27 Oct 7.7 08:44:57 11° NE 08:44:57 11° NE 08:45:12 10° NE visible
27 Oct 6.4 10:24:53 19° NNW 10:24:53 19° NNW 10:27:00 10° N visible
28 Oct 6.9 09:43:51 16° N 09:43:51 16° N 09:44:55 10° NNE visible
